www.pogodaiklimat.ru

Погода и климат >> Архив погоды >> Боливия >> Сан Игнасио де Moксос


ПОГОДА в Сан Игнасио де Moксосе

  • Прогноз погоды в Сан Игнасио де Moксосе
  • Монитор погоды в Сан Игнасио де Moксосе

АРХИВ ПОГОДЫ в Сан Игнасио де Moксосе

Время (UTC), дата Ветер
(напр.,м/с)
 
Видим.   Явления Облачность Т
(С)
Тd
(С)
f
(%)
Тe
(С)
Тes
(С)
Комфортность P
(гПа)
Po
(гПа)
Тmin
(С)
Tmax
(С)
R
(мм)
R24
(мм)
S
(см)
18 11.09 СЗ 6 8000 м дым 5/3 500 м
[Cu med, cong Ci fib]
+34.2 +22.7 51 +44 +48 опасность
перегрева
1006.9 988.9
21 11.09 С 7 8000 м гроза без осадков туман 10/6 450 м
[Cb cap Cs]
+29.4 +22.0 64 +38 +38 очень
душно
1006.6 988.4 +35.6
12 12.09 ЮВ 5 8000 м дым 9/0 2000 м
[Ac und]
+23.0 +22.5 97 +32 +32 очень
душно
1012.8 994.3 +21.4 5
15 12.09 ЮВ 8 8000 м дым 5/0 2000 м
[Ac trans]
+24.6 +18.6 69 +29 +32 душно 1015.9 997.3
18 12.09 ЮВ 8 8000 м дым 5/0 2000 м
[Ac trans Ci fib]
+26.0 +18.2 62 +31 +33 очень
душно
1013.3 994.8
21 12.09 ЮВ 5 8000 м дым 10/3 450 м
[Sc Cs]
+23.0 +17.1 69 +28 +29 душно 1011.6 993.0 +28.0
12 13.09 штиль 0 8000 м дым 9/0 2000 м
[Ac trans]
+18.4 +14.3 77 +19 +21 1016.4 997.6 +17.0
15 13.09 ЮВ 8 8000 м дым 5/0 2000 м
[Ac trans]
+25.2 +13.1 47 +27 +30 жарко 1017.0 998.4
18 13.09 ЮВ 5 8000 м дым ясно +29.4 +14.4 40 +31 +40 жарко 1013.8 995.3
21 13.09 ЮВ 2 8000 м дым ясно +29.6 +16.5 45 +33 +35 душно 1011.4 992.9 +30.4
12 14.09 штиль 0 5000 м дым ясно +19.6 +18.1 91 +22 +27 комфорт 1012.9 994.3 +16.2
15 14.09 штиль 0 5000 м дым ясно +29.4 +19.0 54 +35 +59 опасность
солнечного
удара
1013.6 995.3
18 14.09 СЗ 4 8000 м дым ясно +34.1 +20.4 45 +41 +52 опасность
перегрева
1010.0 991.8
21 14.09 СЗ 2 8000 м дым ясно +35.4 +19.9 40 +41 +44 опасность
перегрева
1007.7 989.5 +35.8
12 15.09 штиль 0 8000 м дым ясно +23.0 +20.8 87 +30 +35 очень
душно
1010.1 991.8 +21.0
15 15.09 СЗ 8 8000 м дым ясно +34.4 +20.7 45 +41 +44 опасность
перегрева
1010.3 992.3
18 15.09 СЗ 4 8000 м дым ясно +36.6 +19.7 37 +42 +53 опасность
перегрева
1007.4 989.4
21 15.09 СЗ 5 8000 м дым ясно +36.2 +19.2 37 +41 +42 опасность
перегрева
1005.5 987.4 +37.5
12 16.09 штиль 0 8000 м дым ясно +25.8 +21.7 78 +33 +38 очень
душно
1009.5 991.4 +22.0
15 16.09 СЗ 4 6000 м дым ясно +34.6 +22.2 49 +44 +56 опасность
перегрева
1010.4 992.2
18 16.09 СЗ 8 6000 м дым 3/3 500 м
[Cu hum]
+37.2 +21.1 39 +44 +46 опасность
перегрева
1007.2 989.2
21 16.09 СЗ 4 5000 м дым 1/1 500 м
[Cu hum]
+37.4 +18.7 34 +42 +43 опасность
перегрева
1006.0 988.0 +38.8
12 17.09 штиль 0 6000 м дым ясно +24.6 +22.1 86 +32 +37 очень
душно
1010.4 992.2 +21.0
15 17.09 штиль 0 5000 м дым ясно +34.2 +23.6 54 +45 +70 опасность
перегрева
1010.6 992.6
18 17.09 СЗ 3 5000 м дым 5/5 500 м
[Cu med, cong]
+37.6 +22.9 43 +47 +54 опасность
перегрева
1007.7 989.8
21 17.09 штиль 0 5000 м дым ясно +37.6 +21.0 38 +44 +48 опасность
перегрева
1004.8 986.0 +38.6
12 18.09 штиль 0 5000 м дым ясно +25.4 +22.1 82 +33 +38 очень
душно
1006.9 988.8 +21.8
15 18.09 С 5 5000 м дым ясно +34.0 +23.7 55 +45 +54 опасность
перегрева
1007.7 989.8

 

Местоположение метеостанции Сан Игнасио де Moксос (Боливия): широта -14.91 долгота -65.60 высота над уровнем моря 160 м.

В архиве по умолчанию представлена погода в Сан Игнасио де Moксосе за последнюю неделю. Архивные данные за месяц целиком и за предыдущие месяцы, начиная с января 2011 года, Вы можете получить, выбрав интересующий диапазон дат из раскрывающегося списка и нажав кнопку "Ввод!".


*Определитесь, кто Вы:
робот инопланетянин человек

Внимание! Время в таблицах - всемирное. Для получения местного времени необходимо прибавить поправку, которая равна -4 ч.

Смотрите также архив погоды в соседних городах и на ближайших метеорологических станциях:

Погода в Тринидаде (Боливия) (75 км)
Погода в Санта-Ане (Боливия) (129 км)
Погода в Бауресе (Боливия) (130 км)
Погода в Сан-Борхе (Боливия) (136 км)
Погода в Санта-Розе (Боливия) (162 км)
Погода в Рейесе (Боливия) (203 км)
Погода в Сан-Рамоне (Боливия) (204 км)
Погода в Рурренабаке (Боливия) (217 км)
Погода в Сан-Хоакине (Боливия) (223 км)
Погода в Магдалене (Боливия) (238 км)

Пояснения к столбцам:

Ветер - указаны скорость ветра в м/с - средняя за 10 мин, порывы в срок и между сроками (в фигурных скобках) и направление, откуда дует ветер: С - северный, СВ - северо-восточный, В - восточный, ЮВ - юго-восточный, Ю - южный, ЮЗ - юго-западный, З - западный, СЗ - северо-западный.
Видимость - горизонтальная дальность видимости в метрах или километрах. При видимости от 1 до 10 км при отсутствии осадков обычно наблюдается дымка, при ухудшении видимости до 1 км и менее - туман. В сухую погоду видимость может ухудшаться дымом, пылью или мглою.
Явления - указаны атмосферные явления, наблюдавшиеся в срок или в последний час перед сроком; фигурными скобками обозначены явления, наблюдавшиеся между сроками (за 1-3 часа до срока); квадратными скобками обозначены град или гололедные отложения с указанием их диаметра в мм.
Облачность - указаны через наклонную черту общая и нижняя облачность в баллах и высота нижней границы облаков в метрах; квадратными скобками обозначены формы облаков: Ci - перистые, Cs - перисто-слоистые, Cc - перисто-кучевые, Ac - высококучевые, As - высокослоистые, Sc - слоисто-кучевые, Ns - слоисто-дождевые, Cu - кучевые, Cb - кучево-дождевые. Подробнее классификацию облаков см. в Атласе облаков (PDF).
T - Температура воздуха - температура, измеренная на высоте 2 м над землей.
Td - Температура точки росы - температура, при понижении до которой содержащийся в воздухе водяной пар достигнет насыщения.
f - Относительная влажность воздуха - влажноcть воздуха, измеренная на высоте 2 м над землей.
Te - Эффективная температура - температура, которую ощущает одетый по сезону человек в тени. Характеристика душности погоды. При расчете учитывается влияние влажности воздуха и скорости ветра на теплоощущения человека.
Tes - Эффективная температура на солнце - температура, которую ощущает человек, с поправкой на солнечный нагрев. Характеристика знойности погоды. Зависит от высоты солнца над горизонтом, облачности и скорости ветра. Ночью, в пасмурную погоду, а также при ветре 12 м/с и более поправка равна нулю.
P - Атмосферное давление - приведенное к уровню моря атмосферное давление.
Po - Атмосферное давление - измеренное на уровне метеостанции атмосферное давление.
Tmin - Минимальная температура - минимум температуры воздуха на высоте 2 м над землей.
Tmax - Максимальная температура - максимум температуры воздуха на высоте 2 м над землей.
R - Количество осадков - Количество выпавших осадков за период времени, мм. При наведении курсора мыши на число - период времени, за который выпало указанное количество осадков.
R24 - Количество осадков - Количество выпавших осадков за 24 часа, мм.
S - Снежный покров - Высота снежного покрова, см. При наведении курсора мыши на число - состояние снежного покрова и степень покрытия местности в баллах.